Weather History for Medford, OR

Change the Weather History Date:

Saturday, December 8, 2012

  Actual Average Record
Temperature  
Mean Temperature 38 °F 40 °F  
Max Temperature 43 °F 46 °F 64 °F (2006)
Min Temperature 32 °F 33 °F -6 °F (1972)
Degree Days  
Heating Degree Days 27 25  
Month to date heating degree days 164 198  
Since 1 July heating degree days 925 1167  
Cooling Degree Days 0 0  
Month to date cooling degree days 0 0  
Year to date cooling degree days 960 829  
Moisture  
Dew Point 34 °F    
Average Humidity 83    
Maximum Humidity 92    
Minimum Humidity 73    
Precipitation  
Precipitation T in 0.12 in 1.55 in (2004)
Month to date precipitation 3.14 0.97  
Year to date precipitation 24.35 15.83  
Snow  
Snow 0.00 in 0.00 in - ()
Month to date snowfall 0.0 0.2  
Since 1 July snowfall 0.0 0.4  
Snow Depth 0.00 in    
Sea Level Pressure  
Sea Level Pressure 30.30 in    
Wind  
Wind Speed 1 mph (South)    
Max Wind Speed 7 mph    
Max Gust Speed 8 mph    
Visibility 9 miles    
Events      
T = Trace of Precipitation, MM = Missing Value Source: NWS Daily Summary

Daily Weather History Graph

Daily Weather History Graph

Search for Another Location

Airport:

Trip Planner

Search our weather history database for the weather conditions in past years. The results will help you decide how hot, cold, wet, or windy it might be!

Date:

Astronomy

Dec. 08, 2012 Rise Set
Actual Time 7:28 AM PST 4:38 PM PST
Civil Twilight 6:56 AM PST 5:10 PM PST
Nautical Twilight 6:21 AM PST 5:45 PM PST
Astronomical Twilight 5:47 AM PST 6:19 PM PST
Moon 1:54 AM PST (12/8) 1:16 PM PST (12/8)
Length of Visible Light 10h 13m
Length of Day
9h 10m
Waning Crescent, 27% of the Moon is Illuminated
Dec 8
Waning Crescent
Dec 13
New
Dec 19
First Quarter
Dec 28
Full
Jan 4
Last Quarter

Hourly Weather History & Observations

Time (PST) Temp. Windchill Dew Point Humidity Pressure Visibility Wind Dir Wind Speed Gust Speed Precip Events Conditions
12:53 AM 37.9 °F - 34.0 °F 86% 30.28 in 8.0 mi Calm Calm - N/A   Overcast
1:48 AM 37.4 °F - 33.8 °F 87% 30.26 in 8.0 mi Calm Calm - N/A   Overcast
1:53 AM 37.9 °F - 34.0 °F 86% 30.28 in 8.0 mi Calm Calm - N/A   Overcast
2:53 AM 37.4 °F - 33.8 °F 87% 30.25 in 8.0 mi Calm Calm - N/A   Overcast
3:53 AM 37.0 °F 33.3 °F 34.0 °F 89% 30.27 in 10.0 mi SSE 4.6 mph - N/A   Overcast
4:08 AM 37.4 °F 32.8 °F 33.8 °F 87% 30.24 in 9.0 mi SSE 5.8 mph - N/A   Overcast
4:53 AM 37.0 °F 34.5 °F 34.0 °F 89% 30.27 in 10.0 mi SSE 3.5 mph - N/A   Overcast
5:53 AM 36.0 °F 32.1 °F 33.1 °F 89% 30.27 in 10.0 mi SSE 4.6 mph - N/A   Overcast
6:53 AM 36.0 °F - 33.1 °F 89% 30.29 in 10.0 mi Calm Calm - N/A   Overcast
7:53 AM 37.0 °F 33.3 °F 34.0 °F 89% 30.30 in 4.0 mi South 4.6 mph - 0.00 in   Overcast
8:01 AM 37.4 °F 33.8 °F 33.8 °F 87% 30.27 in 4.0 mi South 4.6 mph - N/A   Overcast
8:53 AM 37.0 °F 31.6 °F 34.0 °F 89% 30.30 in 4.0 mi SSE 6.9 mph - N/A   Overcast
9:53 AM 37.0 °F 34.5 °F 34.0 °F 89% 30.32 in 10.0 mi SSW 3.5 mph - N/A   Overcast
10:53 AM 39.0 °F - 34.0 °F 82% 30.33 in 10.0 mi Calm Calm - N/A   Overcast
11:53 AM 39.0 °F - 34.0 °F 82% 30.32 in 9.0 mi Calm Calm - N/A   Overcast
12:20 PM 39.2 °F 37.0 °F 33.8 °F 81% 30.28 in 9.0 mi West 3.5 mph - N/A   Overcast
12:30 PM 39.2 °F - 35.6 °F 87% 30.28 in 10.0 mi Calm Calm - N/A   Overcast
12:53 PM 39.9 °F - 35.1 °F 83% 30.30 in 10.0 mi Calm Calm - N/A   Overcast
1:00 PM 39.2 °F - 35.6 °F 87% 30.28 in 10.0 mi Calm Calm - N/A   Overcast
1:45 PM 42.8 °F - 35.6 °F 76% 30.28 in 10.0 mi Calm Calm - N/A   Partly Cloudy
1:53 PM 42.1 °F - 35.1 °F 76% 30.30 in 10.0 mi Calm Calm - N/A   Mostly Cloudy
2:53 PM 42.1 °F - 35.1 °F 76% 30.30 in 10.0 mi Calm Calm - N/A   Clear
3:53 PM 42.1 °F 40.2 °F 35.1 °F 76% 30.29 in 10.0 mi SW 3.5 mph - N/A   Clear
4:53 PM 41.0 °F - 34.0 °F 76% 30.30 in 10.0 mi Calm Calm - N/A   Partly Cloudy
5:53 PM 39.0 °F - 35.1 °F 86% 30.31 in 10.0 mi Calm Calm - N/A   Partly Cloudy
6:53 PM 37.9 °F - 34.0 °F 86% 30.32 in 8.0 mi Calm Calm - N/A   Partly Cloudy
7:53 PM 37.0 °F 34.5 °F 33.1 °F 86% 30.34 in 8.0 mi West 3.5 mph - N/A   Partly Cloudy
8:53 PM 34.0 °F - 30.9 °F 89% 30.35 in 8.0 mi Calm Calm - N/A   Partly Cloudy
9:53 PM 33.1 °F - 30.9 °F 92% 30.37 in 8.0 mi Calm Calm - N/A   Clear
10:53 PM 33.1 °F - 30.9 °F 92% 30.38 in 6.0 mi Calm Calm - N/A   Partly Cloudy
11:25 PM 33.8 °F - 32.0 °F 93% 30.35 in 6.0 mi Calm Calm - N/A   Mostly Cloudy
11:53 PM 34.0 °F - 30.9 °F 89% 30.38 in 6.0 mi Calm Calm - N/A   Overcast